Regional Weather Roundup
Issued by NWS Lake Charles, LA

Home | Current Version | Previous Version | Text Only | Print | Product List | Glossary On
Versions: 1 2 3 4 5 6 7 8 9 10 11 12 13 14 15 16 17 18 19 20 21 22 23 24 25 26 27
000
ASUS44 KLCH 301810
RWRLCH
REGIONAL WEATHER ROUNDUP
NATIONAL WEATHER SERVICE LAKE CHARLES LA
100 PM CDT MON MAY 30 2016

Note: "fair" indicates few or no clouds below 12,000 feet with no
significant weather and/or obstructions to visibility.


ACROSS SOUTHEAST TEXAS

CITY           SKY/WX    TMP DP  RH WIND       PRES   REMARKS
BEAUMONT       CLOUDY    87  70  56 VRB7      30.01F
BEAUMONT CITY  FAIR      87  70  56 S9        30.00F
ORANGE         PTCLDY    86  64  47 S6        30.03F
JASPER         MOSUNNY   83  70  65 SE7       30.02F
$$

ACROSS CENTRAL LOUISIANA

CITY           SKY/WX    TMP DP  RH WIND       PRES   REMARKS
LEESVILLE      PTSUNNY   86  70  58 S9        30.01F
FULLERTON      NOT AVBL
ALEXANDRIA INT MOSUNNY   88  69  53 VRB6      29.99F
ESLER FIELD    SUNNY     91  70  49 S8        30.01F
DERIDDER       FAIR      86  68  55 SE3       30.03F
OAKDALE        MOCLDY    86  70  59 S3        30.01F
OPELOUSAS      MOCLDY    85  71  62 E3        30.01F
$$

ACROSS SOUTHWEST AND SOUTH CENTRAL LOUISIANA

CITY           SKY/WX    TMP DP  RH WIND       PRES   REMARKS
SULPHUR        PTCLDY    87  69  55 S9        30.03F
LAKE CHARLES   MOSUNNY   86  67  52 VRB7      30.02F
CHENNAULT INT  PTSUNNY  N/A N/A N/A S9          N/A
CAMERON PHI    CLEAR     82  73  74 SW12      30.07F
DEQUINCY       FAIR      85  70  59 S6        30.03F
JENNINGS       MOCLDY    84  72  65 CALM      30.03S
LAFAYETTE      PTSUNNY   87  69  54 CALM      30.01F
NEW IBERIA     MOSUNNY   88  70  55 SW7       30.02F
ABBEVILLE      FAIR      87  72  62 S6        30.02F
PATTERSON      MOSUNNY   87  71  58 S8        30.02F
SALT POINT       N/A     85  74  69 SW7       30.02F
$$

SELECTED SITES ACROSS THE REGION

CITY           SKY/WX    TMP DP  RH WIND       PRES   REMARKS
HOUSTON BUSH   CLOUDY    79  71  76 S7        29.97F
HOUSTON HOBBY  CLOUDY    80  71  74 S9        29.97F
GALVESTON      CLOUDY    80  72  76 SE13      30.02F
COLLEGE STAT   PTSUNNY   81  68  64 VRB5      29.99R
CONROE         CLOUDY    80  70  71 S18       29.95F
HUNTSVILLE     PTSUNNY   82  70  66 NW5       30.00R
LUFKIN         CLOUDY    81  70  69 S8        30.00F
SHREVEPORT     CLOUDY    83  71  67 SW3       30.01F
MONROE         SUNNY     88  70  55 E6        30.03F
NATCHEZ MS     MOSUNNY   88  70  55 N5        30.01F
BATON ROUGE    PTSUNNY   88  66  48 E5        30.00F
N.O. INTL ARPT PTSUNNY   91  70  49 VRB5      30.01F
SLIDELL        CLOUDY    85  75  72 SW7       30.00F
$$

MARINE REPORTS

STATION/POSITION TIME  SKY/WX   TEMP    WIND        PRES    VSBY
                                AIR SEA DIR/SP/G
                 (UTC)          (F)     (DEG/KT/KT) (MB)    (MI)
BUOY 30 S HIGH I 1750            81 84  220/  2/  2 1017.2F
WVE H/P(F/S)=  2/ 6

SEA RIM ST PARK  1800            82     190/  9/ 11 1017.0F
PORT ARTHUR      1700               79  140/  3/  4 1017.5F
SABINE PASS N    1700            83 82  200/  9/ 12 1019.0F
TEXAS POINT      NOT AVBL
CALCASIEU PASS   1700            80 82  210/  9/ 10 1016.9F
LK CHARLES BEACH 1700            83 78              1017.5F
MARSH ISLAND     1700            83                   N/A
FRESH WATER LOCK 1700            80 84  170/  7/  9 1018.1S
AMERADA PASS     1700            83 78  250/  2/  4 1017.1F
$$




USA.gov is the U.S. government's official web portal to all federal, state and local government web resources and services.